Location: Lancaster
(54.0470°N, 2.8020°W)
Time: 08:03:42
(UTC+01:00)

COSMOS 2428 - Visible Passes

Search period start: 03 September 2014 00:00
Search period end: 13 September 2014 00:00
Orbit: 846 x 856 km, 71.0° (Epoch: 03 September)

Date Brightness Start Highest point End Pass type
(mag) Time Alt. Az. Time Alt. Az. Time Alt. Az.
03 Sep 4.6 04:30:31 10° SSE 04:35:10 27° ESE 04:39:51 10° NE visible
04 Sep 4.5 04:18:18 10° SSE 04:22:57 27° ESE 04:27:37 10° NE visible
05 Sep 4.5 04:06:04 10° SSE 04:10:43 27° ESE 04:15:23 10° NE visible
06 Sep 4.4 03:53:50 10° SSE 03:58:29 27° ESE 04:03:09 10° NE visible
06 Sep 2.8 05:36:37 10° SW 05:42:17 71° NW 05:48:01 10° NNE visible
07 Sep 4.4 03:42:18 13° SSE 03:46:15 27° ESE 03:50:56 10° NE visible
07 Sep 2.8 05:24:23 10° SW 05:30:03 71° NW 05:35:47 10° NNE visible
08 Sep 4.3 03:30:47 16° SSE 03:34:01 27° ESE 03:38:42 10° NE visible
08 Sep 2.8 05:12:49 14° SW 05:17:49 71° NW 05:23:33 10° NNE visible
09 Sep 4.3 03:19:13 19° SE 03:21:47 27° ESE 03:26:28 10° NE visible
09 Sep 2.8 05:01:15 18° SW 05:05:36 71° NW 05:11:19 10° NNE visible
10 Sep 4.2 03:07:37 22° SE 03:09:33 27° ESE 03:14:14 10° NE visible
10 Sep 2.7 04:49:38 22° SW 04:53:21 71° NW 04:59:05 10° NNE visible
11 Sep 4.1 02:55:57 24° SE 02:57:19 27° ESE 03:02:00 10° NE visible
11 Sep 2.7 04:37:59 27° SW 04:41:07 71° NW 04:46:51 10° NNE visible
12 Sep 4.1 02:44:16 26° ESE 02:45:05 27° ESE 02:49:46 10° NE visible
12 Sep 2.7 04:26:17 33° SW 04:28:53 71° NW 04:34:37 10° NNE visible
